| time (UTC) | temp C | wind direction | speed KPH | gust KPH | rain 1hr cm | rain 24hr cm | rain mn cm | humidity % | barometer mb |
| 20260503210504 | 20 | 255 | 4.8 | 14.5 | 0.00 | 0.00 | 0.00 | 58 | 1010.0 |
| 20260503210004 | 20 | 269 | 4.8 | 14.5 | 0.00 | 0.00 | 0.00 | 58 | 1010.0 |
| 20260503200503 | 19 | 223 | 3.2 | 14.5 | 0.00 | 0.00 | 0.00 | 70 | 1010.4 |
| 20260503200004 | 19 | 214 | 6.4 | 16.1 | 0.00 | 0.00 | 0.00 | 70 | 1010.6 |
| 20260503190502 | 18 | 235 | 6.4 | 11.3 | 0.00 | 0.00 | 0.00 | 71 | 1010.5 |
| 20260503180503 | 17 | 253 | 4.8 | 9.7 | 0.00 | 0.00 | 0.00 | 74 | 1010.3 |
| 20260503180002 | 17 | 254 | 6.4 | 12.9 | 0.00 | 0.00 | 0.00 | 74 | 1010.4 |
| 20260503150503 | 13 | 289 | 3.2 | 4.8 | 0.00 | 0.00 | 0.00 | 94 | 1010.0 |
| 20260503130503 | 13 | 317 | 1.6 | 1.6 | 0.00 | 0.00 | 0.00 | 87 | 1008.7 |
| 20260503110502 | 13 | 307 | 3.2 | 4.8 | 0.00 | 0.00 | 0.00 | 87 | 1008.6 |
| 20260503090502 | 14 | 314 | 3.2 | 4.8 | 0.00 | 0.00 | 0.00 | 82 | 1008.6 |
| 20260503080503 | 14 | 336 | 3.2 | 8.0 | 0.00 | 0.00 | 0.00 | 82 | 1008.9 |
| 20260503070503 | 15 | 320 | 3.2 | 8.0 | 0.00 | 0.00 | 0.00 | 78 | 1008.8 |
| 20260503050502 | 15 | 17 | 3.2 | 9.7 | 0.00 | 0.00 | 0.00 | 78 | 1009.1 |
| 20260503050003 | 15 | 308 | 4.8 | 9.7 | 0.00 | 0.00 | 0.00 | 78 | 1009.1 |
| 20260503040503 | 16 | 343 | 3.2 | 8.0 | 0.00 | 0.00 | 0.00 | 77 | 1008.5 |
| 20260503030503 | 17 | 5 | 1.6 | 4.8 | 0.00 | 0.00 | 0.00 | 73 | 1007.7 |
| 20260503030003 | 17 | 12 | 3.2 | 9.7 | 0.00 | 0.00 | 0.00 | 71 | 1007.8 |
| 20260503020503 | 18 | 6 | 3.2 | 9.7 | 0.00 | 0.00 | 0.00 | 66 | 1007.4 |
| 20260503010503 | 20 | 71 | 3.2 | 9.7 | 0.00 | 0.00 | 0.00 | 62 | 1007.6 |
| 20260503000503 | 21 | 252 | 3.2 | 11.3 | 0.00 | 0.00 | 0.00 | 61 | 1007.8 |
| 20260503000003 | 21 | 259 | 8.0 | 19.3 | 0.00 | 0.00 | 0.00 | 61 | 1007.8 |
| 20260502230002 | 21 | 219 | 8.0 | 16.1 | 0.00 | 0.00 | 0.00 | 66 | 1008.5 |
| 20260502220502 | 19 | 234 | 6.4 | 12.9 | 0.00 | 0.00 | 0.00 | 70 | 1009.7 |
| 20260502220003 | 19 | 254 | 6.4 | 12.9 | 0.00 | 0.00 | 0.00 | 70 | 1009.7 |